Hourly Data Report for October 26, 2016

All times are specified in Local Standard Time (LST). Add 1 hour to adjust for Daylight Saving Time where and when it is observed.

BATHURST A
NEW BRUNSWICK

47°37'47.000" N
65°44'20.000" W
58.80 m
8100505
71574
ZBF

Download Data

Hourly Data (October 2016)
Hourly Data Report for October 26, 2016
Temp Definition
°C
Dew Point Temp Definition
°C
Rel Hum Definition
%
Wind Dir Definition
10's deg

Wind Spd Definition
km/h
Visibility Definition
km
Stn Press Definition
kPa
Hmdx Definition


Wind Chill Definition


Weather Definition


TIME
00:00 Legend Double Dagger 4.0 0.7 79 3 10 11.3 101.14     Rain
01:00 Legend Double Dagger 3.7 0.9 82 36 9 11.3 101.20     Rain
02:00 Legend Double Dagger 3.6 0.8 82 36 9 16.1 101.26     Rain
03:00 Legend Double Dagger 3.5 0.7 82 36 9 16.1 101.30     Rain
04:00 Legend Double Dagger 3.1 1.2 87 1 7 11.3 101.36     Rain
05:00 Legend Double Dagger 3.0 1.1 87 36 9 11.3 101.43     Rain
06:00 Legend Double Dagger 3.0 1.2 88 36 8 11.3 101.49     Rain
07:00 Legend Double Dagger 3.0 1.1 87 36 8 16.1 101.60     Snow
08:00 Legend Double Dagger 3.4 0.3 80 2 12 16.1 101.67     Snow
09:00 Legend Double Dagger 3.9 0.2 77 3 12 24.1 101.73     LegendNANA
10:00 Legend Double Dagger 4.3 0.1 74 2 14 24.1 101.80     LegendNANA
11:00 Legend Double Dagger 4.9 0.1 71 5 14 24.1 101.86     Cloudy
12:00 Legend Double Dagger 5.7 0.5 69 5 14 24.1 101.86     LegendNANA
13:00 Legend Double Dagger 6.1 -0.4 63 3 13 24.1 101.87     LegendNANA
14:00 Legend Double Dagger 4.7 0.3 73 35 8 24.1 101.90     Mostly Cloudy
15:00 Legend Double Dagger 3.4 1.5 87 4 10 16.1 101.97     LegendNANA
16:00 Legend Double Dagger 1.8 0.9 94 9 9 6.4 102.02     Rain Showers,Fog
17:00 Legend Double Dagger 2.2 1.2 93 36 2 16.1 102.07     Rain Showers
18:00 Legend Double Dagger 0.5 0.1 97 12 10 11.3 102.13     Snow Showers
19:00 Legend Double Dagger 0.8 0.5 98 28 6 6.4 102.17     Rain Showers,Fog
20:00 Legend Double Dagger 0.5 0.4 99 26 5 6.4 102.20     Ice Pellet Showers,Fog
21:00 Legend Double Dagger 1.8 0.2 89 1 7 16.1 102.25     Rain Showers
22:00 Legend Double Dagger 1.5 0.6 94 8 3 16.1 102.27     LegendNANA
23:00 Legend Double Dagger 1.7 0.5 92 0 1 16.1 102.31     Cloudy

Notes on Data Quality.

Legend

  • E = Estimated
  • M = Missing
  • NA = Not Available
  • ‡ = Partner data that is not subject to review by the National Climate Archives
Date modified: